Location: Cheching
(60.0667°N, 164.2167°W)
Time: 14:09:21
(UTC+00:00)

NOAA 19 - Pass Details

Date: 26 January 2021
Orbit: 840 x 862 km, 99.2° (Epoch: 01 March)

Event Time Altitude Azimuth Distance (km) Brightness Sun altitude
Rises 05:52:41 0° 202° (SSW) 3,428 8.7 -21.5°
Reaches altitude 10° 05:55:30 10° 216° (SW) 2,494 8.1 -21.8°
Maximum altitude 06:00:00 25° 270° (W) 1,666 7.5 -22.4°
Drops below altitude 10° 06:04:31 10° 325° (NW) 2,497 8.1 -22.9°
Sets 06:07:20 0° 339° (NNW) 3,433 8.7 -23.3°
